Track PRISM (HITOMI) now! 10-day predictions PRISM (HITOMI) is classified as:
1 33493U 09002B 24326.14942913 .00062336 00000-0 17298-2 0 9992 2 33493 98.1799 28.8298 0008062 65.1720 295.0360 15.36659727862991